Regional Weather Roundup
Issued by NWS

Home | Current Version | Previous Version | Text Only | Print | Product List | Glossary Off
Versions: 1 2 3 4 5 6 7 8 9 10 11 12 13 14 15 16 17 18 19 20 21 22 23 24 25 26 27 28 29 30 31 32 33 34 35 36 37 38 39 40 41 42 43 44 45 46 47 48 49 50

000
ASUS43 KOAX 310202
RWRNE

WEATHER ROUNDUP FOR NEBRASKA
NATIONAL WEATHER SERVICE OMAHA NE
900 PM CDT SAT AUG 30 2014

NOTES: SATELLITE DATA IS BEING USED TO AUGMENT CLOUD COVER ABOVE
       12000 FEET.
       "FAIR" INDICATES FEW OR NO CLOUDS BELOW 12,000 FEET WITH NO
       SIGNIFICANT WEATHER AND/OR OBSTRUCTIONS TO VISIBILITY.

  * THESE STATIONS DO NOT REPORT WEATHER SUCH AS RAIN...SNOW OR FOG.

NEZ001>004-019>022-054>056-310300-
NEBRASKA PANHANDLE

CITY           SKY/WX    TMP DP  RH WIND       PRES   REMARKS
SCOTTSBLUFF    CLOUDY    77  48  35 W15G24    29.86R
ALLIANCE       CLOUDY    79  44  28 W29G41    29.83R
CHADRON        LGT RAIN  69  59  70 S5        29.76F
KIMBALL        CLOUDY    70  47  44 W16       29.93F
SIDNEY         MOCLDY    78  45  30 W25G41    29.89R
$$

NEZ057>060-069>072-079>082-310300-
SOUTHWEST NEBRASKA

CITY           SKY/WX    TMP DP  RH WIND       PRES   REMARKS
NORTH PLATTE   CLEAR     70  64  81 E8        29.80R
IMPERIAL       CLEAR     76  55  48 S10       29.82S
LEXINGTON      CLEAR     75  67  77 SE9       29.81F
MCCOOK         CLEAR     79  54  41 S12       29.81S
OGALLALA       PTCLDY    73  55  52 S7        29.80R
$$

NEZ005>010-023>029-035>040-094-310300-
NORTH CENTRAL NEBRASKA

CITY           SKY/WX    TMP DP  RH WIND       PRES   REMARKS
VALENTINE      CLEAR     76  63  64 SE9       29.74S
AINSWORTH      CLEAR     73  64  71 SE13G18   29.77F
BROKEN BOW     CLEAR     72  66  81 SE8       29.81F
O`NEILL        CLEAR     73  66  79 SE10      29.81S
ORD            CLEAR     73  66  78 SE7       29.80F
THEDFORD       CLEAR     75  64  69 SE12      29.79F
$$

NEZ041-046>049-061>064-073>077-083>087-310300-
SOUTH CENTRAL NEBRASKA

CITY           SKY/WX    TMP DP  RH WIND       PRES   REMARKS
GRAND ISLAND   CLEAR     75  66  73 SE10      29.84F
AURORA         CLEAR     71  68  90 SE6       29.84F
HASTINGS       CLEAR     76  63  64 SE12      29.84F
HEBRON         CLEAR     71  64  78 SE5       29.85S
HOLDREGE       CLEAR     70  64  80 CALM      29.83S
KEARNEY *      CLEAR     73  64  73 E10       29.83F
$$

NEZ011>018-030>034-042>045-310300-
NORTHEAST NEBRASKA

CITY           SKY/WX    TMP DP  RH WIND       PRES   REMARKS
NORFOLK        CLEAR     70  62  76 SE7       29.84F
ALBION         CLEAR     69  64  84 SE6       29.83F
BLAIR          CLEAR     72  65  80 SE7       29.87S
FREMONT        CLEAR     73  63  72 E6        29.86S
TEKAMAH        CLEAR     70  65  84 SE6       29.85F
WAYNE          CLEAR     68  65  91 SE7       29.85F
$$

NEZ050>053-065>068-078-088>093-310300-
SOUTHEAST NEBRASKA

CITY           SKY/WX    TMP DP  RH WIND       PRES   REMARKS
LINCOLN        CLEAR     78  63  59 SE8       29.86S
OMAHA EPPLEY   CLEAR     73  63  70 SE6       29.87S
FALLS CITY     CLEAR     74  68  81 SE6       29.88R
NEBRASKA CITY  CLEAR     73  66  81 S5        29.88R
PLATTSMOUTH    CLEAR     72  64  76 E5        29.88S
$$

NEZ044-045-051>053-067-310300-
OMAHA AREA

CITY           SKY/WX    TMP DP  RH WIND       PRES   REMARKS
OMAHA EPPLEY   CLEAR     73  63  70 SE6       29.87S
BLAIR          CLEAR     72  65  80 SE7       29.87S
FREMONT        CLEAR     73  63  72 E6        29.86S
MILLARD        CLEAR     73  65  78 CALM      29.86S
OFFUTT AFB     CLEAR     71  70  96 E5        29.87S
PLATTSMOUTH    CLEAR     72  64  76 E5        29.88S
WAHOO          FAIR      70  65  83 E5        29.86S
$$


USA.gov is the U.S. government's official web portal to all federal, state and local government web resources and services.